Year,Month,Day,Hour,Minute,Value (Times are PST for temperature in C)
2007,07,29,00,00,19.10
2007,07,29,00,01,19.10
2007,07,29,00,02,19.10
2007,07,29,00,03,19.10
2007,07,29,00,04,19.10
2007,07,29,00,05,19.10
2007,07,29,00,06,19.10
2007,07,29,00,07,19.10
2007,07,29,00,08,19.10
2007,07,29,00,09,19.10
2007,07,29,00,10,19.10
2007,07,29,00,11,19.10
2007,07,29,00,12,19.10
2007,07,29,00,13,19.10
2007,07,29,00,14,19.10
2007,07,29,00,15,19.10
2007,07,29,00,16,19.10
2007,07,29,00,17,19.20
2007,07,29,00,18,19.20
2007,07,29,00,19,19.20
2007,07,29,00,20,19.20
2007,07,29,00,21,19.20
2007,07,29,00,22,19.20
2007,07,29,00,23,19.20
2007,07,29,00,24,19.20
2007,07,29,00,25,19.20
2007,07,29,00,26,19.20
2007,07,29,00,27,19.20
2007,07,29,00,28,19.20
2007,07,29,00,29,19.10
2007,07,29,00,30,19.10
2007,07,29,00,31,19.10
2007,07,29,00,32,19.10
2007,07,29,00,33,19.10
2007,07,29,00,34,19.10
2007,07,29,00,35,19.10
2007,07,29,00,36,19.10
2007,07,29,00,37,19.10
2007,07,29,00,38,19.00
2007,07,29,00,39,19.00
2007,07,29,00,40,19.00
2007,07,29,00,41,18.90
2007,07,29,00,42,18.90
2007,07,29,00,43,18.80
2007,07,29,00,44,18.80
2007,07,29,00,45,18.70
2007,07,29,00,46,18.70
2007,07,29,00,47,18.60
2007,07,29,00,48,18.60
2007,07,29,00,49,18.50
2007,07,29,00,50,18.40
2007,07,29,00,51,18.40
2007,07,29,00,52,18.30
2007,07,29,00,53,18.30
2007,07,29,00,54,18.20
2007,07,29,00,55,18.20
2007,07,29,00,56,18.20
2007,07,29,00,57,18.10
2007,07,29,00,58,18.10
2007,07,29,00,59,18.10
2007,07,29,01,00,18.10
2007,07,29,01,01,18.00
2007,07,29,01,02,18.00
2007,07,29,01,03,18.00
2007,07,29,01,04,17.90
2007,07,29,01,05,17.90
2007,07,29,01,06,17.90
2007,07,29,01,07,17.90
2007,07,29,01,08,17.90
2007,07,29,01,09,17.90
2007,07,29,01,10,17.90
2007,07,29,01,11,17.90
2007,07,29,01,12,17.80
2007,07,29,01,13,17.80
2007,07,29,01,14,17.80
2007,07,29,01,15,17.80
2007,07,29,01,16,17.80
2007,07,29,01,17,17.80
2007,07,29,01,18,17.80
2007,07,29,01,19,17.70
2007,07,29,01,20,17.70
2007,07,29,01,21,17.70
2007,07,29,01,22,17.70
2007,07,29,01,23,17.70
2007,07,29,01,24,17.70
2007,07,29,01,25,17.70
2007,07,29,01,26,17.70
2007,07,29,01,27,17.70
2007,07,29,01,28,17.70
2007,07,29,01,29,17.70
2007,07,29,01,30,17.70
2007,07,29,01,31,17.70
2007,07,29,01,32,17.70
2007,07,29,01,33,17.70
2007,07,29,01,34,17.70
2007,07,29,01,35,17.70
2007,07,29,01,36,17.70
2007,07,29,01,37,17.70
2007,07,29,01,38,17.70
2007,07,29,01,39,17.70
2007,07,29,01,40,17.70
2007,07,29,01,41,17.70
2007,07,29,01,42,17.70
2007,07,29,01,43,17.70
2007,07,29,01,44,17.70
2007,07,29,01,45,17.70
2007,07,29,01,46,17.70
2007,07,29,01,47,17.70
2007,07,29,01,48,17.70
2007,07,29,01,49,17.70
2007,07,29,01,50,17.70
2007,07,29,01,51,17.70
2007,07,29,01,52,17.70
2007,07,29,01,53,17.70
2007,07,29,01,54,17.70
2007,07,29,01,55,17.60
2007,07,29,01,56,17.60
2007,07,29,01,57,17.60
2007,07,29,01,58,17.60
2007,07,29,01,59,17.50
2007,07,29,02,00,17.50
2007,07,29,02,01,17.50
2007,07,29,02,02,17.50
2007,07,29,02,03,17.50
2007,07,29,02,04,17.50
2007,07,29,02,05,17.50
2007,07,29,02,06,17.50
2007,07,29,02,07,17.50
2007,07,29,02,08,17.40
2007,07,29,02,09,17.40
2007,07,29,02,10,17.40
2007,07,29,02,11,17.40
2007,07,29,02,12,17.40
2007,07,29,02,13,17.40
2007,07,29,02,14,17.40
2007,07,29,02,15,17.40
2007,07,29,02,16,17.40
2007,07,29,02,17,17.40
2007,07,29,02,18,17.40
2007,07,29,02,19,17.40
2007,07,29,02,20,17.30
2007,07,29,02,21,17.30
2007,07,29,02,22,17.30
2007,07,29,02,23,17.30
2007,07,29,02,24,17.30
2007,07,29,02,25,17.30
2007,07,29,02,26,17.30
2007,07,29,02,27,17.30
2007,07,29,02,28,17.30
2007,07,29,02,29,17.30
2007,07,29,02,30,17.30
2007,07,29,02,31,17.30
2007,07,29,02,32,17.30
2007,07,29,02,33,17.30
2007,07,29,02,34,17.20
2007,07,29,02,35,17.20
2007,07,29,02,36,17.20
2007,07,29,02,37,17.20
2007,07,29,02,38,17.20
2007,07,29,02,39,17.20
2007,07,29,02,40,17.20
2007,07,29,02,41,17.20
2007,07,29,02,42,17.20
2007,07,29,02,43,17.20
2007,07,29,02,44,17.20
2007,07,29,02,45,17.20
2007,07,29,02,46,17.30
2007,07,29,02,47,17.30
2007,07,29,02,48,17.30
2007,07,29,02,49,17.30
2007,07,29,02,50,17.30
2007,07,29,02,51,17.30
2007,07,29,02,52,17.30
2007,07,29,02,53,17.20
2007,07,29,02,54,17.20
2007,07,29,02,55,17.30
2007,07,29,02,56,17.30
2007,07,29,02,57,17.40
2007,07,29,02,58,17.40
2007,07,29,02,59,17.40
2007,07,29,03,00,17.40
2007,07,29,03,01,17.40
2007,07,29,03,02,17.40
2007,07,29,03,03,17.40
2007,07,29,03,04,17.40
2007,07,29,03,05,17.40
2007,07,29,03,06,17.40
2007,07,29,03,07,17.40
2007,07,29,03,08,17.40
2007,07,29,03,09,17.40
2007,07,29,03,10,17.40
2007,07,29,03,11,17.40
2007,07,29,03,12,17.30
2007,07,29,03,13,17.30
2007,07,29,03,14,17.30
2007,07,29,03,15,17.30
2007,07,29,03,16,17.30
2007,07,29,03,17,17.30
2007,07,29,03,18,17.20
2007,07,29,03,19,17.20
2007,07,29,03,20,17.20
2007,07,29,03,21,17.20
2007,07,29,03,22,17.20
2007,07,29,03,23,17.20
2007,07,29,03,24,17.20
2007,07,29,03,25,17.20
2007,07,29,03,26,17.20
2007,07,29,03,27,17.20
2007,07,29,03,28,17.20
2007,07,29,03,29,17.20
2007,07,29,03,30,17.20
2007,07,29,03,31,17.20
2007,07,29,03,32,17.10
2007,07,29,03,33,17.10
2007,07,29,03,34,17.00
2007,07,29,03,35,17.00
2007,07,29,03,36,16.90
2007,07,29,03,37,16.90
2007,07,29,03,38,16.90
2007,07,29,03,39,16.90
2007,07,29,03,40,16.90
2007,07,29,03,41,16.90
2007,07,29,03,42,16.90
2007,07,29,03,43,16.90
2007,07,29,03,44,16.90
2007,07,29,03,45,16.90
2007,07,29,03,46,16.80
2007,07,29,03,47,16.80
2007,07,29,03,48,16.80
2007,07,29,03,49,16.80
2007,07,29,03,50,16.80
2007,07,29,03,51,16.80
2007,07,29,03,52,16.80
2007,07,29,03,53,16.80
2007,07,29,03,54,16.80
2007,07,29,03,55,16.80
2007,07,29,03,56,16.80
2007,07,29,03,57,16.80
2007,07,29,03,58,16.80
2007,07,29,03,59,16.80
2007,07,29,04,00,16.90
2007,07,29,04,01,16.90
2007,07,29,04,02,16.90
2007,07,29,04,03,16.90
2007,07,29,04,04,16.90
2007,07,29,04,05,16.90
2007,07,29,04,06,16.90
2007,07,29,04,07,16.90
2007,07,29,04,08,17.00
2007,07,29,04,09,17.00
2007,07,29,04,10,17.00
2007,07,29,04,11,17.00
2007,07,29,04,12,17.10
2007,07,29,04,13,17.10
2007,07,29,04,14,17.10
2007,07,29,04,15,17.20
2007,07,29,04,16,17.20
2007,07,29,04,17,17.20
2007,07,29,04,18,17.20
2007,07,29,04,19,17.20
2007,07,29,04,20,17.20
2007,07,29,04,21,17.20
2007,07,29,04,22,17.20
2007,07,29,04,23,17.20
2007,07,29,04,24,17.20
2007,07,29,04,25,17.20
2007,07,29,04,26,17.20
2007,07,29,04,27,17.20
2007,07,29,04,28,17.20
2007,07,29,04,29,17.20
2007,07,29,04,30,17.10
2007,07,29,04,31,17.10
2007,07,29,04,32,17.10
2007,07,29,04,33,17.10
2007,07,29,04,34,17.10
2007,07,29,04,35,17.10
2007,07,29,04,36,17.10
2007,07,29,04,37,17.10
2007,07,29,04,38,17.10
2007,07,29,04,39,17.00
2007,07,29,04,40,17.00
2007,07,29,04,41,17.00
2007,07,29,04,42,16.90
2007,07,29,04,43,16.90
2007,07,29,04,44,16.90
2007,07,29,04,45,16.90
2007,07,29,04,46,16.90
2007,07,29,04,47,16.90
2007,07,29,04,48,16.80
2007,07,29,04,49,16.80
2007,07,29,04,50,16.80
2007,07,29,04,51,16.80
2007,07,29,04,52,16.80
2007,07,29,04,53,16.80
2007,07,29,04,54,16.80
2007,07,29,04,55,16.80
2007,07,29,04,56,16.80
2007,07,29,04,57,16.80
2007,07,29,04,58,16.70
2007,07,29,04,59,16.70
2007,07,29,05,00,16.70
2007,07,29,05,01,16.70
2007,07,29,05,02,16.70
2007,07,29,05,03,16.70
2007,07,29,05,04,16.70
2007,07,29,05,05,16.70
2007,07,29,05,06,16.70
2007,07,29,05,07,16.70
2007,07,29,05,08,16.70
2007,07,29,05,09,16.70
2007,07,29,05,10,16.70
2007,07,29,05,11,16.70
2007,07,29,05,12,16.70
2007,07,29,05,13,16.70
2007,07,29,05,14,16.70
2007,07,29,05,15,16.70
2007,07,29,05,16,16.80
2007,07,29,05,17,16.80
2007,07,29,05,18,16.80
2007,07,29,05,19,16.90
2007,07,29,05,20,17.00
2007,07,29,05,21,17.00
2007,07,29,05,22,17.10
2007,07,29,05,23,17.10
2007,07,29,05,24,17.20
2007,07,29,05,25,17.20
2007,07,29,05,26,17.20
2007,07,29,05,27,17.30
2007,07,29,05,28,17.30
2007,07,29,05,29,17.30
2007,07,29,05,30,17.30
2007,07,29,05,31,17.40
2007,07,29,05,32,17.40
2007,07,29,05,33,17.40
2007,07,29,05,34,17.40
2007,07,29,05,35,17.40
2007,07,29,05,36,17.40
2007,07,29,05,37,17.40
2007,07,29,05,38,17.40
2007,07,29,05,39,17.50
2007,07,29,05,40,17.50
2007,07,29,05,41,17.60
2007,07,29,05,42,17.60
2007,07,29,05,43,17.60
2007,07,29,05,44,17.60
2007,07,29,05,45,17.60
2007,07,29,05,46,17.60
2007,07,29,05,47,17.60
2007,07,29,05,48,17.60
2007,07,29,05,49,17.60
2007,07,29,05,50,17.60
2007,07,29,05,51,17.60
2007,07,29,05,52,17.60
2007,07,29,05,53,17.60
2007,07,29,05,54,17.60
2007,07,29,05,55,17.60
2007,07,29,05,56,17.60
2007,07,29,05,57,17.60
2007,07,29,05,58,17.60
2007,07,29,05,59,17.60
2007,07,29,06,00,17.60
2007,07,29,06,01,17.60
2007,07,29,06,02,17.60
2007,07,29,06,03,17.60
2007,07,29,06,04,17.60
2007,07,29,06,05,17.60
2007,07,29,06,06,17.60
2007,07,29,06,07,17.60
2007,07,29,06,08,17.60
2007,07,29,06,09,17.60
2007,07,29,06,10,17.50
2007,07,29,06,11,17.50
2007,07,29,06,12,17.40
2007,07,29,06,13,17.40
2007,07,29,06,14,17.40
2007,07,29,06,15,17.40
2007,07,29,06,16,17.40
2007,07,29,06,17,17.50
2007,07,29,06,18,17.50
2007,07,29,06,19,17.50
2007,07,29,06,20,17.50
2007,07,29,06,21,17.40
2007,07,29,06,22,17.40
2007,07,29,06,23,17.40
2007,07,29,06,24,17.40
2007,07,29,06,25,17.40
2007,07,29,06,26,17.40
2007,07,29,06,27,17.40
2007,07,29,06,28,17.40
2007,07,29,06,29,17.50
2007,07,29,06,30,17.40
2007,07,29,06,31,17.40
2007,07,29,06,32,17.40
2007,07,29,06,33,17.40
2007,07,29,06,34,17.40
2007,07,29,06,35,17.40
2007,07,29,06,36,17.30
2007,07,29,06,37,17.30
2007,07,29,06,38,17.30
2007,07,29,06,39,17.30
2007,07,29,06,40,17.30
2007,07,29,06,41,17.20
2007,07,29,06,42,17.20
2007,07,29,06,43,17.20
2007,07,29,06,44,17.20
2007,07,29,06,45,17.20
2007,07,29,06,46,17.10
2007,07,29,06,47,17.10
2007,07,29,06,48,17.00
2007,07,29,06,49,17.00
2007,07,29,06,50,16.90
2007,07,29,06,51,16.80
2007,07,29,06,52,16.80
2007,07,29,06,53,16.70
2007,07,29,06,54,16.70
2007,07,29,06,55,16.70
2007,07,29,06,56,16.70
2007,07,29,06,57,16.70
2007,07,29,06,58,16.70
2007,07,29,06,59,16.70
2007,07,29,07,00,16.70
2007,07,29,07,01,16.70
2007,07,29,07,02,16.70
2007,07,29,07,03,16.80
2007,07,29,07,04,16.80
2007,07,29,07,05,16.80
2007,07,29,07,06,16.80
2007,07,29,07,07,16.80
2007,07,29,07,08,16.80
2007,07,29,07,09,16.90
2007,07,29,07,10,16.90
2007,07,29,07,11,16.90
2007,07,29,07,12,16.90
2007,07,29,07,13,16.90
2007,07,29,07,14,16.90
2007,07,29,07,15,16.80
2007,07,29,07,16,16.80
2007,07,29,07,17,16.80
2007,07,29,07,18,16.70
2007,07,29,07,19,16.70
2007,07,29,07,20,16.70
2007,07,29,07,21,16.70
2007,07,29,07,22,16.60
2007,07,29,07,23,16.60
2007,07,29,07,24,16.60
2007,07,29,07,25,16.60
2007,07,29,07,26,16.60
2007,07,29,07,27,16.60
2007,07,29,07,28,16.50
2007,07,29,07,29,16.50
2007,07,29,07,30,16.40
2007,07,29,07,31,16.40
2007,07,29,07,32,16.40
2007,07,29,07,33,16.40
2007,07,29,07,34,16.40
2007,07,29,07,35,16.40
2007,07,29,07,36,16.40
2007,07,29,07,37,16.40
2007,07,29,07,38,16.40
2007,07,29,07,39,16.40
2007,07,29,07,40,16.40
2007,07,29,07,41,16.40
2007,07,29,07,42,16.40
2007,07,29,07,43,16.40
2007,07,29,07,44,16.40
2007,07,29,07,45,16.40
2007,07,29,07,46,16.40
2007,07,29,07,47,16.40
2007,07,29,07,48,16.40
2007,07,29,07,49,16.30
2007,07,29,07,50,16.30
2007,07,29,07,51,16.30
2007,07,29,07,52,16.30
2007,07,29,07,53,16.30
2007,07,29,07,54,16.30
2007,07,29,07,55,16.30
2007,07,29,07,56,16.30
2007,07,29,07,57,16.40
2007,07,29,07,58,16.40
2007,07,29,07,59,16.50
2007,07,29,08,00,16.50
2007,07,29,08,01,16.60
2007,07,29,08,02,16.60
2007,07,29,08,03,16.60
2007,07,29,08,04,16.60
2007,07,29,08,05,16.60
2007,07,29,08,06,16.60
2007,07,29,08,07,16.60
2007,07,29,08,08,16.60
2007,07,29,08,09,16.60
2007,07,29,08,10,16.60
2007,07,29,08,11,16.60
2007,07,29,08,12,16.50
2007,07,29,08,13,16.50
2007,07,29,08,14,16.50
2007,07,29,08,15,16.40
2007,07,29,08,16,16.40
2007,07,29,08,17,16.50
2007,07,29,08,18,16.50
2007,07,29,08,19,16.50
2007,07,29,08,20,16.50
2007,07,29,08,21,16.50
2007,07,29,08,22,16.60
2007,07,29,08,23,16.60
2007,07,29,08,24,16.60
2007,07,29,08,25,16.50
2007,07,29,08,26,16.50
2007,07,29,08,27,16.50
2007,07,29,08,28,16.50
2007,07,29,08,29,16.50
2007,07,29,08,30,16.60
2007,07,29,08,31,16.60
2007,07,29,08,32,16.70
2007,07,29,08,33,16.80
2007,07,29,08,34,16.80
2007,07,29,08,35,16.80
2007,07,29,08,36,16.90
2007,07,29,08,37,16.90
2007,07,29,08,38,17.00
2007,07,29,08,39,17.00
2007,07,29,08,40,17.10
2007,07,29,08,41,17.20
2007,07,29,08,42,17.30
2007,07,29,08,43,17.40
2007,07,29,08,44,17.50
2007,07,29,08,45,17.60
2007,07,29,08,46,17.70
2007,07,29,08,47,17.60
2007,07,29,08,48,17.70
2007,07,29,08,49,17.60
2007,07,29,08,50,17.60
2007,07,29,08,51,17.60
2007,07,29,08,52,17.60
2007,07,29,08,53,17.60
2007,07,29,08,54,17.70
2007,07,29,08,55,17.70
2007,07,29,08,56,17.80
2007,07,29,08,57,17.80
2007,07,29,08,58,17.90
2007,07,29,08,59,18.00
2007,07,29,09,00,18.20
2007,07,29,09,01,18.30
2007,07,29,09,02,18.40
2007,07,29,09,03,18.50
2007,07,29,09,04,18.60
2007,07,29,09,05,18.70
2007,07,29,09,06,18.70
2007,07,29,09,07,18.60
2007,07,29,09,08,18.60
2007,07,29,09,09,18.50
2007,07,29,09,10,18.50
2007,07,29,09,11,18.40
2007,07,29,09,12,18.40
2007,07,29,09,13,18.30
2007,07,29,09,14,18.30
2007,07,29,09,15,18.30
2007,07,29,09,16,18.30
2007,07,29,09,17,18.30
2007,07,29,09,18,18.30
2007,07,29,09,19,18.30
2007,07,29,09,20,18.40
2007,07,29,09,21,18.50
2007,07,29,09,22,18.60
2007,07,29,09,23,18.60
2007,07,29,09,24,18.70
2007,07,29,09,25,18.80
2007,07,29,09,26,18.80
2007,07,29,09,27,18.90
2007,07,29,09,28,18.90
2007,07,29,09,29,18.90
2007,07,29,09,30,18.90
2007,07,29,09,31,18.90
2007,07,29,09,32,19.00
2007,07,29,09,33,19.00
2007,07,29,09,34,19.10
2007,07,29,09,35,19.10
2007,07,29,09,36,19.10
2007,07,29,09,37,19.20
2007,07,29,09,38,19.30
2007,07,29,09,39,19.50
2007,07,29,09,40,19.50
2007,07,29,09,41,19.40
2007,07,29,09,42,19.40
2007,07,29,09,43,19.30
2007,07,29,09,44,19.30
2007,07,29,09,45,19.30
2007,07,29,09,46,19.30
2007,07,29,09,47,19.30
2007,07,29,09,48,19.30
2007,07,29,09,49,19.30
2007,07,29,09,50,19.30
2007,07,29,09,51,19.30
2007,07,29,09,52,19.30
2007,07,29,09,53,19.30
2007,07,29,09,54,19.30
2007,07,29,09,55,19.50
2007,07,29,09,56,19.70
2007,07,29,09,57,19.80
2007,07,29,09,58,19.90
2007,07,29,09,59,19.90
2007,07,29,10,00,19.90
2007,07,29,10,01,19.90
2007,07,29,10,02,19.90
2007,07,29,10,03,19.90
2007,07,29,10,04,19.90
2007,07,29,10,05,19.90
2007,07,29,10,06,20.00
2007,07,29,10,07,20.00
2007,07,29,10,08,20.10
2007,07,29,10,09,20.10
2007,07,29,10,10,20.00
2007,07,29,10,11,19.90
2007,07,29,10,12,19.80
2007,07,29,10,13,19.80
2007,07,29,10,14,19.80
2007,07,29,10,15,19.80
2007,07,29,10,16,19.80
2007,07,29,10,17,19.70
2007,07,29,10,18,19.50
2007,07,29,10,19,19.40
2007,07,29,10,20,19.50
2007,07,29,10,21,19.50
2007,07,29,10,22,19.70
2007,07,29,10,23,19.90
2007,07,29,10,24,20.00
2007,07,29,10,25,20.10
2007,07,29,10,26,20.10
2007,07,29,10,27,20.10
2007,07,29,10,28,20.00
2007,07,29,10,29,20.00
2007,07,29,10,30,19.90
2007,07,29,10,31,19.90
2007,07,29,10,32,19.80
2007,07,29,10,33,19.70
2007,07,29,10,34,19.70
2007,07,29,10,35,19.60
2007,07,29,10,36,19.60
2007,07,29,10,37,19.60
2007,07,29,10,38,19.60
2007,07,29,10,39,19.70
2007,07,29,10,40,19.80
2007,07,29,10,41,19.90
2007,07,29,10,42,20.00
2007,07,29,10,43,20.10
2007,07,29,10,44,20.20
2007,07,29,10,45,20.20
2007,07,29,10,46,20.20
2007,07,29,10,47,20.20
2007,07,29,10,48,20.10
2007,07,29,10,49,20.00
2007,07,29,10,50,20.00
2007,07,29,10,51,20.00
2007,07,29,10,52,20.10
2007,07,29,10,53,20.20
2007,07,29,10,54,20.40
2007,07,29,10,55,20.60
2007,07,29,10,56,20.80
2007,07,29,10,57,20.90
2007,07,29,10,58,21.10
2007,07,29,10,59,21.10
2007,07,29,11,00,21.00
2007,07,29,11,01,20.80
2007,07,29,11,02,20.50
2007,07,29,11,03,20.20
2007,07,29,11,04,19.90
2007,07,29,11,05,19.70
2007,07,29,11,06,19.40
2007,07,29,11,07,19.30
2007,07,29,11,08,19.20
2007,07,29,11,09,19.10
2007,07,29,11,10,19.10
2007,07,29,11,11,19.10
2007,07,29,11,12,19.10
2007,07,29,11,13,19.20
2007,07,29,11,14,19.20
2007,07,29,11,15,19.30
2007,07,29,11,16,19.30
2007,07,29,11,17,19.40
2007,07,29,11,18,19.40
2007,07,29,11,19,19.50
2007,07,29,11,20,19.60
2007,07,29,11,21,19.60
2007,07,29,11,22,19.60
2007,07,29,11,23,19.60
2007,07,29,11,24,19.60
2007,07,29,11,25,19.80
2007,07,29,11,26,19.90
2007,07,29,11,27,19.80
2007,07,29,11,28,19.80
2007,07,29,11,29,19.70
2007,07,29,11,30,19.70
2007,07,29,11,31,19.70
2007,07,29,11,32,19.60
2007,07,29,11,33,19.60
2007,07,29,11,34,19.60
2007,07,29,11,35,19.60
2007,07,29,11,36,19.60
2007,07,29,11,37,19.50
2007,07,29,11,38,19.50
2007,07,29,11,39,19.50
2007,07,29,11,40,19.50
2007,07,29,11,41,19.50
2007,07,29,11,42,19.50
2007,07,29,11,43,19.50
2007,07,29,11,44,19.50
2007,07,29,11,45,19.50
2007,07,29,11,46,19.60
2007,07,29,11,47,19.60
2007,07,29,11,48,19.70
2007,07,29,11,49,19.70
2007,07,29,11,50,19.70
2007,07,29,11,51,19.80
2007,07,29,11,52,19.80
2007,07,29,11,53,19.80
2007,07,29,11,54,19.90
2007,07,29,11,55,20.00
2007,07,29,11,56,20.10
2007,07,29,11,57,20.10
2007,07,29,11,58,20.20
2007,07,29,11,59,20.30
2007,07,29,12,00,20.40
2007,07,29,12,01,20.40
2007,07,29,12,02,20.40
2007,07,29,12,03,20.40
2007,07,29,12,04,20.30
2007,07,29,12,05,20.30
2007,07,29,12,06,20.10
2007,07,29,12,07,20.00
2007,07,29,12,08,20.00
2007,07,29,12,09,20.00
2007,07,29,12,10,20.00
2007,07,29,12,11,20.00
2007,07,29,12,12,19.90
2007,07,29,12,13,19.90
2007,07,29,12,14,19.80
2007,07,29,12,15,19.90
2007,07,29,12,16,19.90
2007,07,29,12,17,19.90
2007,07,29,12,18,20.00
2007,07,29,12,19,20.00
2007,07,29,12,20,20.00
2007,07,29,12,21,19.90
2007,07,29,12,22,19.80
2007,07,29,12,23,19.80
2007,07,29,12,24,19.70
2007,07,29,12,25,19.70
2007,07,29,12,26,19.80
2007,07,29,12,27,19.80
2007,07,29,12,28,19.90
2007,07,29,12,29,20.00
2007,07,29,12,30,20.00
2007,07,29,12,31,20.10
2007,07,29,12,32,20.20
2007,07,29,12,33,20.30
2007,07,29,12,34,20.40
2007,07,29,12,35,20.40
2007,07,29,12,36,20.40
2007,07,29,12,37,20.50
2007,07,29,12,38,20.50
2007,07,29,12,39,20.60
2007,07,29,12,40,20.70
2007,07,29,12,41,20.70
2007,07,29,12,42,20.80
2007,07,29,12,43,20.70
2007,07,29,12,44,20.80
2007,07,29,12,45,20.80
2007,07,29,12,46,20.90
2007,07,29,12,47,20.90
2007,07,29,12,48,20.80
2007,07,29,12,49,20.70
2007,07,29,12,50,20.40
2007,07,29,12,51,20.30
2007,07,29,12,52,20.20
2007,07,29,12,53,20.10
2007,07,29,12,54,20.10
2007,07,29,12,55,20.10
2007,07,29,12,56,20.10
2007,07,29,12,57,20.10
2007,07,29,12,58,20.20
2007,07,29,12,59,20.20
2007,07,29,13,00,20.30
2007,07,29,13,01,20.30
2007,07,29,13,02,20.40
2007,07,29,13,03,20.40
2007,07,29,13,04,20.40
2007,07,29,13,05,20.40
2007,07,29,13,06,20.30
2007,07,29,13,07,20.30
2007,07,29,13,08,20.30
2007,07,29,13,09,20.20
2007,07,29,13,10,20.20
2007,07,29,13,11,20.20
2007,07,29,13,12,20.30
2007,07,29,13,13,20.40
2007,07,29,13,14,20.40
2007,07,29,13,15,20.50
2007,07,29,13,16,20.60
2007,07,29,13,17,20.60
2007,07,29,13,18,20.70
2007,07,29,13,19,20.70
2007,07,29,13,20,20.70
2007,07,29,13,21,20.70
2007,07,29,13,22,20.70
2007,07,29,13,23,20.70
2007,07,29,13,24,20.80
2007,07,29,13,25,20.80
2007,07,29,13,26,20.80
2007,07,29,13,27,20.80
2007,07,29,13,28,20.70
2007,07,29,13,29,20.70
2007,07,29,13,30,20.70
2007,07,29,13,31,20.70
2007,07,29,13,32,20.60
2007,07,29,13,33,20.40
2007,07,29,13,34,20.30
2007,07,29,13,35,20.20
2007,07,29,13,36,20.10
2007,07,29,13,37,20.00
2007,07,29,13,38,19.90
2007,07,29,13,39,19.90
2007,07,29,13,40,19.90
2007,07,29,13,41,19.90
2007,07,29,13,42,19.90
2007,07,29,13,43,19.90
2007,07,29,13,44,19.80
2007,07,29,13,45,19.60
2007,07,29,13,46,19.40
2007,07,29,13,47,19.30
2007,07,29,13,48,19.20
2007,07,29,13,49,19.20
2007,07,29,13,50,19.10
2007,07,29,13,51,19.10
2007,07,29,13,52,19.10
2007,07,29,13,53,19.10
2007,07,29,13,54,19.00
2007,07,29,13,55,19.00
2007,07,29,13,56,18.90
2007,07,29,13,57,18.80
2007,07,29,13,58,18.80
2007,07,29,13,59,18.80
2007,07,29,14,00,18.80
2007,07,29,14,01,18.80
2007,07,29,14,02,18.80
2007,07,29,14,03,18.90
2007,07,29,14,04,18.90
2007,07,29,14,05,18.90
2007,07,29,14,06,18.90
2007,07,29,14,07,18.80
2007,07,29,14,08,18.80
2007,07,29,14,09,18.70
2007,07,29,14,10,18.70
2007,07,29,14,11,18.60
2007,07,29,14,12,18.60
2007,07,29,14,13,18.50
2007,07,29,14,14,18.40
2007,07,29,14,15,18.40
2007,07,29,14,16,18.40
2007,07,29,14,17,18.40
2007,07,29,14,18,18.50
2007,07,29,14,19,18.50
2007,07,29,14,20,18.50
2007,07,29,14,21,18.50
2007,07,29,14,22,18.60
2007,07,29,14,23,18.60
2007,07,29,14,24,18.60
2007,07,29,14,25,18.60
2007,07,29,14,26,18.70
2007,07,29,14,27,18.70
2007,07,29,14,28,18.70
2007,07,29,14,29,18.70
2007,07,29,14,30,18.70
2007,07,29,14,31,18.70
2007,07,29,14,32,18.70
2007,07,29,14,33,18.70
2007,07,29,14,34,18.70
2007,07,29,14,35,18.70
2007,07,29,14,36,18.70
2007,07,29,14,37,18.70
2007,07,29,14,38,18.70
2007,07,29,14,39,18.70
2007,07,29,14,40,18.80
2007,07,29,14,41,18.80
2007,07,29,14,42,18.80
2007,07,29,14,43,18.80
2007,07,29,14,44,18.90
2007,07,29,14,45,18.90
2007,07,29,14,46,19.00
2007,07,29,14,47,19.00
2007,07,29,14,48,19.00
2007,07,29,14,49,19.00
2007,07,29,14,50,19.00
2007,07,29,14,51,19.10
2007,07,29,14,52,19.00
2007,07,29,14,53,19.00
2007,07,29,14,54,19.00
2007,07,29,14,55,18.90
2007,07,29,14,56,18.90
2007,07,29,14,57,19.00
2007,07,29,14,58,19.00
2007,07,29,14,59,19.10
2007,07,29,15,00,19.10
2007,07,29,15,01,19.10
2007,07,29,15,02,19.20
2007,07,29,15,03,19.20
2007,07,29,15,04,19.20
2007,07,29,15,05,19.30
2007,07,29,15,06,19.30
2007,07,29,15,07,19.40
2007,07,29,15,08,19.40
2007,07,29,15,09,19.40
2007,07,29,15,10,19.40
2007,07,29,15,11,19.30
2007,07,29,15,12,19.30
2007,07,29,15,13,19.30
2007,07,29,15,14,19.30
2007,07,29,15,15,19.30
2007,07,29,15,16,19.30
2007,07,29,15,17,19.40
2007,07,29,15,18,19.40
2007,07,29,15,19,19.50
2007,07,29,15,20,19.60
2007,07,29,15,21,19.60
2007,07,29,15,22,19.70
2007,07,29,15,23,19.70
2007,07,29,15,24,19.80
2007,07,29,15,25,19.80
2007,07,29,15,26,19.80
2007,07,29,15,27,19.80
2007,07,29,15,28,19.80
2007,07,29,15,29,19.80
2007,07,29,15,30,19.80
2007,07,29,15,31,19.80
2007,07,29,15,32,19.80
2007,07,29,15,33,19.70
2007,07,29,15,34,19.60
2007,07,29,15,35,19.50
2007,07,29,15,36,19.40
2007,07,29,15,37,19.30
2007,07,29,15,38,19.30
2007,07,29,15,39,19.30
2007,07,29,15,40,19.30
2007,07,29,15,41,19.30
2007,07,29,15,42,19.30
2007,07,29,15,43,19.40
2007,07,29,15,44,19.40
2007,07,29,15,45,19.50
2007,07,29,15,46,19.60
2007,07,29,15,47,19.70
2007,07,29,15,48,19.70
2007,07,29,15,49,19.80
2007,07,29,15,50,19.90
2007,07,29,15,51,20.00
2007,07,29,15,52,20.00
2007,07,29,15,53,20.10
2007,07,29,15,54,20.20
2007,07,29,15,55,20.20
2007,07,29,15,56,20.20
2007,07,29,15,57,20.30
2007,07,29,15,58,20.30
2007,07,29,15,59,20.30
2007,07,29,16,00,20.30
2007,07,29,16,01,20.20
2007,07,29,16,02,20.30
2007,07,29,16,03,20.30
2007,07,29,16,04,20.30
2007,07,29,16,05,20.30
2007,07,29,16,06,20.30
2007,07,29,16,07,20.20
2007,07,29,16,08,20.10
2007,07,29,16,09,20.10
2007,07,29,16,10,20.20
2007,07,29,16,11,20.20
2007,07,29,16,12,20.20
2007,07,29,16,13,20.30
2007,07,29,16,14,20.30
2007,07,29,16,15,20.40
2007,07,29,16,16,20.30
2007,07,29,16,17,20.30
2007,07,29,16,18,20.30
2007,07,29,16,19,20.30
2007,07,29,16,20,20.30
2007,07,29,16,21,20.30
2007,07,29,16,22,20.40
2007,07,29,16,23,20.40
2007,07,29,16,24,20.40
2007,07,29,16,25,20.50
2007,07,29,16,26,20.50
2007,07,29,16,27,20.50
2007,07,29,16,28,20.50
2007,07,29,16,29,20.40
2007,07,29,16,30,20.40
2007,07,29,16,31,20.40
2007,07,29,16,32,20.40
2007,07,29,16,33,20.40
2007,07,29,16,34,20.40
2007,07,29,16,35,20.30
2007,07,29,16,36,20.30
2007,07,29,16,37,20.30
2007,07,29,16,38,20.30
2007,07,29,16,39,20.20
2007,07,29,16,40,20.20
2007,07,29,16,41,20.10
2007,07,29,16,42,20.20
2007,07,29,16,43,20.10
2007,07,29,16,44,20.10
2007,07,29,16,45,20.10
2007,07,29,16,46,20.10
2007,07,29,16,47,20.10
2007,07,29,16,48,20.20
2007,07,29,16,49,20.20
2007,07,29,16,50,20.20
2007,07,29,16,51,20.20
2007,07,29,16,52,20.20
2007,07,29,16,53,20.20
2007,07,29,16,54,20.20
2007,07,29,16,55,20.20
2007,07,29,16,56,20.20
2007,07,29,16,57,20.10
2007,07,29,16,58,20.10
2007,07,29,16,59,20.10
2007,07,29,17,00,20.00
2007,07,29,17,01,19.90
2007,07,29,17,02,19.90
2007,07,29,17,03,19.80
2007,07,29,17,04,19.80
2007,07,29,17,05,19.60
2007,07,29,17,06,19.50
2007,07,29,17,07,19.40
2007,07,29,17,08,19.40
2007,07,29,17,09,19.30
2007,07,29,17,10,19.30
2007,07,29,17,11,19.30
2007,07,29,17,12,19.30
2007,07,29,17,13,19.30
2007,07,29,17,14,19.20
2007,07,29,17,15,19.10
2007,07,29,17,16,19.00
2007,07,29,17,17,19.00
2007,07,29,17,18,18.90
2007,07,29,17,19,18.90